This is the latest recevied weather packets stored in our database for station/object N9BID. If no packets are shown the sender has not sent any weather packets the latest 10 day(s).
| Time | Temp. | Humidity | Pressure | Rain* | Wind** | Luminosity | Snow |
|---|---|---|---|---|---|---|---|
| 1777874625 | 6.67° C | 69% | 994.4 hPa | 0 mm | - | 0 W/m² | - |
| 1777874323 | 6.67° C | 69% | 994.5 hPa | 0 mm | - | 0 W/m² | - |
| 1777874021 | 6.67° C | 69% | 994.7 hPa | 0 mm | - | 0 W/m² | - |
| 1777873718 | 6.67° C | 71% | 994.7 hPa | 0 mm | - | 0 W/m² | - |
| 1777873416 | 6.67° C | 71% | 994.8 hPa | 0 mm | - | 0 W/m² | - |
| 1777873112 | 6.67° C | 71% | 994.9 hPa | 0 mm | - | 0 W/m² | - |
| 1777872809 | 6.67° C | 72% | 995 hPa | 0 mm | - | 0 W/m² | - |
| 1777872506 | 6.67° C | 71% | 995.1 hPa | 0 mm | - | 0 W/m² | - |
| 1777872204 | 7.22° C | 70% | 995.2 hPa | 0 mm | - | 0 W/m² | - |
| 1777871901 | 6.67° C | 71% | 995 hPa | 0 mm | - | 0 W/m² | - |
| 1777871597 | 6.67° C | 74% | 995.1 hPa | 0 mm | - | 0 W/m² | - |
| 1777871294 | 6.67° C | 73% | 995.1 hPa | 0 mm | - | 0 W/m² | - |
| 1777870991 | 7.22° C | 72% | 995.3 hPa | 0 mm | - | 0 W/m² | - |
| 1777870689 | 7.78° C | 69% | 995.4 hPa | 0 mm | - | 0 W/m² | - |
| 1777870389 | 7.78° C | 68% | 995.4 hPa | 0 mm | - | 0 W/m² | - |
| 1777870086 | 7.78° C | 67% | 995.5 hPa | 0 mm | - | 0 W/m² | - |
| 1777869783 | 7.78° C | 67% | 995.5 hPa | 0 mm | - | 0 W/m² | - |
| 1777869481 | 8.33° C | 67% | 995.5 hPa | 0 mm | - | 0 W/m² | - |
| 1777869177 | 8.33° C | 67% | 995.6 hPa | 0 mm | - | 0 W/m² | - |
| 1777868875 | 8.33° C | 67% | 995.9 hPa | 0 mm | - | 0 W/m² | - |
| 1777868571 | 8.33° C | 65% | 995.9 hPa | 0 mm | - | 0 W/m² | - |
| 1777868268 | 7.78° C | 66% | 995.9 hPa | 0 mm | - | 0 W/m² | - |
| 1777867964 | 8.33° C | 64% | 995.7 hPa | 0 mm | - | 0 W/m² | - |
| 1777867660 | 8.89° C | 63% | 995.8 hPa | 0 mm | - | 0 W/m² | - |
| 1777867358 | 9.44° C | 61% | 995.9 hPa | 0 mm | - | 0 W/m² | - |
* Rain latest hour (hover to see other rain measurements)
** Current wind speed in m/s (hover to see current wind gust speed)